Find Starlink 37933

NORAD ID: 69532 Int'l Des: 2026-133 Owner: SPXS Country: US Constellation: starlink operational
LEOCIRCULAR

当前视图

正在加载3D地球...

About Starlink 37933

Starlink 37933 (NORAD 69532) is a starlink constellation satellite (v2 mini) launched Jun 11, 2026 by SPXS of US. It operates in LEO, CIRCULAR orbit with a mass of 575.00 kg.

即将过境

Passes for default location (London). Set your location on the main map for personalized predictions.

高度历史

Loading altitude history...

两行轨道根数

1 69532U 26133AA 26238.45257428 .00028573 00000-0 85358-3 0 9995
2 69532 53.1562 347.1489 0001322 86.0557 274.0596 15.34399890 12911
Epoch: Aug 26, 2026 • Age: 6 hours

当前状态

高度 477.2 km
远地点 / 近地点 N/A
速度 7.63 km/s
星下点 -41.57°S, 76.57°E
发射日期 Jun 11, 2026
运行时间 0.2 years
类型 internet

技术详情

分类 Payload
质量 575.00 kg
干质量 530.00 kg
总质量 575.00 kg
长度 0.30 m
直径 4.10 m
跨度 29.00 m
形状 Box + pan
制造商 SPXS
平台类型 Starlink V2MO
阶段状态 In Orbit
所有者/国家 SPXS/US

Most Searched